SES-21

Last updated on Sun Apr 12 2026 00:02:56 GMT+0000 (Coordinated Universal Time)

1 53961U 22123B 26100.71043502 .00000070 00000+0 00000+0 0 9990 2 53961 0.0257 71.8422 0001325 301.6423 310.2039 1.00274036 6539
UTC large
Height (km)
Speed (km/s)
/
Latitude / Longitude
Inclination (degrees)
Orbital Period (minutes)
Azimuth
Elevation
Range (km)
Doppler Factor

Next 0 passes for location: London (51.5072 / 0.1276)

Sorry there are no passes over London.
SES-21